Location: Barcelona
(41.3830°N, 2.1830°E)
Time: 22:53:41
(UTC+02:00)

ISS - Pass Details

Date: 20 July 2017
Orbit: 400 x 408 km, 51.6° (Epoch: 24 July)

Event Time Altitude Azimuth Distance (km) Brightness Sun altitude
Rises 04:26:46 0° 308° (NW) 2,315 0.0 -19.0°
Reaches altitude 10° 04:29:25 10° 331° (NNW) 1,456 -0.7 -18.7°
Maximum altitude 04:31:32 16° 12° (NNE) 1,152 -0.7 -18.5°
Drops below altitude 10° 04:33:39 10° 52° (NE) 1,457 0.2 -18.2°
Sets 04:36:19 0° 75° (ENE) 2,317 0.9 -17.9°
